Погода в Братолюбовке

Погода в Братолюбовке : погода сейчас, прогноз погоды и архив. Всё, что Вы хотите узнать о погоде в Братолюбовке!

Поиск расширенной информации на нашем сайте:

Другие новости

Новости СМИ2

Главная страница сайта

Новости сайта

03.07.2017

Напоминаем, что на нашем специализированном сайте Метеоцентр.Азия вы можете получить высокодетализированные автоматические прогнозы погоды по пунктам России, СНГ и мира в авиационном формате (включающие направление и скорость ветра, видимость, явления погоды, количество и форму облачности, нижнюю и верхнюю границу облачности).


Погода в Братолюбовке - сегодня

Время (UTC), дата Ветер
(°,м/с) 
Видим.   Явления Облачность Т
(°С)
Тd
(°С)
f(%) Тe
(°С)
Pmin
(гПа)
dP
(гПа)
Po
(мм)
O2
(г/м3)
Тmin Tmax R s Состояние
почвы
09 18.06.18 200 (Ю) 20000 м  {ливн. осадки}  10/5 600 м кучево-дожд., средняя 
[Cb cap|As trans]
+18.4 +14 76 +28  998.2  -1.4  729  272           
12 18.06.18 050 (СВ) 20000 м  гроза без осадков{ливн. осадки}  10/10 600 м кучево-дожд. 
[Cb cap]
+15.4 +14.1 92 +25  998.3  -0.2  729  275    +22.4  0.0     
15 18.06.18 040 (СВ) 4300 м  ливневой дождь{гроза}  10/10 600 м кучево-дожд. 
[Cb cap]
+12.9 +11.8 93 +18  997.4  -1  728  278           
18 18.06.18 360 (С) 4400 м  ливневой дождь{гроза}  10/10 600 м кучево-дожд. 
[Cb cap]
+11.8 +10.8 94 +15  995.6  -1.9  726  279           
21 18.06.18 320 (СЗ) 7000 м  слаб. ливневой дождь  10/10 600 м кучево-дожд. 
[Cb cap]
+9.9 +8.8 93 +10  995.6  -0.2  726  281           
00 19.06.18 320 (СЗ) 15000 м  в посл. час ливневой дождь  10/10 600 м кучево-дожд. 
[Cb cap]
+8.9 +7.6 92 +9  996.5  0.8  727  282  +8.6    21    затоплена
водой 
03 19.06.18 290 (З) 8000 м  слаб. ливневой дождь  10/10 600 м кучево-дожд. 
[Cb cap]
+9.7 +8 89 +9  997.8  1.3  728  282           
06 19.06.18 330 (СЗ) 20000 м  {ливн. осадки}  10/10 600 м кучево-дожд. 
[Cb cap]
+12.3 +8.9 80 +14  998.9  1.3  729  279           
09 19.06.18 020 (С) 20000 м    9/6 600 м кучево-дожд., средняя 
[Cb cap|Ac trans]
+12.5 +8.4 76 +14  1000.3  1.3  730  280           
15 19.06.18 тихо ()   4800 м  дымка  ясно 
+7.1 +6.2 94 +7  1001.8  0.2  731  286           
18 19.06.18 330 (СЗ) 5000 м  в посл. час туман  3/0 верхняя 
[Ci fib]
+5.4 +4.6 95 +6  1002.3  0.3  731  288           
21 19.06.18 020 (С) 20000 м    4/0 средняя, верхняя 
[Ac trans|Ci fib]
+6.8 +4.8 87 +7  1002.5  0.3  731  287           
00 20.06.18 020 (С) 20000 м    8/8 600 м 
[Sc]
+10.4 +5.8 73 +10  1001.8  -0.3  731  283  +5.4        влажная 
03 20.06.18 020 (С) 20000 м    10/10 600 м 
[Sc]
+13.8 +7.1 64 +14  1001.5  731  279           
06 20.06.18 060 (СВ) 20000 м    8/8 600 м 
[Cu Sc]
+16.4 +8.5 59 +17  1000.3  -1  730  276           
09 20.06.18 070 (В) 20000 м    3/3 600 м средняя 
[Sc diur, vesp|Ac trans]
+16.6 +8.9 60 +17  999.9  -0.3  730  276           
15 20.06.18 260 (З) 50000 м    3/0 средняя, верхняя 
[Ac lent|Ci fib]
+9 +8 93 +10  1000.9  -0.2  730  283           
18 20.06.18 250 (З) 50000 м    3/0 средняя 
[Ac lent]
+7.6 +6.8 95 +9  1000.6  -0.5  730  285           
21 20.06.18 280 (З) 20000 м    3/0 средняя, верхняя 
[Ac lent|Cc]
+9.8 +9 95 +11  1000.5  0.2  730  282           
00 21.06.18 350 (С) 20000 м    3/0 средняя 
[Ac cast]
+17.1 +10.2 64 +20  999.8  730  275  +7        влажная 
03 21.06.18 290 (З) 20000 м    3/3 1000 м верхняя 
[Cu hum|Ci sp]
+20.2 +10.7 54 +23  998.6  -0.9  729  272           
06 21.06.18 310 (СЗ) 20000 м    8/5 1000 м верхняя 
[Cu med, cong|Ci sp]
+22.9 +9.4 42 +24  997.1  -1.2  728  269           
09 21.06.18 310 (СЗ) 20000 м    6/4 600 м верхняя 
[Cu Sc|Ci fib]
+22.8 +9.8 44 +24  996.6  -0.5  728  269           
12 21.06.18 240 (ЮЗ) 20000 м    6/3 600 м средняя 
[Sc|Ac lent]
+15.6 +12.7 83 +23  997.7  -0.5  728  275    +23.7       
15 21.06.18 160 (Ю) 50000 м    4/0 средняя 
[Ac lent]
+15 +11.2 78 +19  997.2  -0.6  728  276           
Время (UTC), дата Ветер
(°,м/с) 
Видим.   Явления Облачность Т
(°С)
Тd
(°С)
f(%) Тe
(°С)
Pmin
(гПа)
dP
(гПа)
Po
(мм)
O2
(г/м3)
Тmin Tmax R s Состояние
почвы

Для получения пояснительной информации подведите курсор к названию столбца.

ПОГОДА в Братолюбовке - архив

Всё, что Вы хотите узнать о погоде в Братолюбовке - удобно и подробно!

Выберите нужную дату (начиная с 1 января 2015* года) и нажмите кнопку "Найти".
Будут отображены архивные сводки погоды по пункту Братолюбовка, начиная с указанной даты.


Отображать данные в формате CSV (для использования в таблицах Excel)


Внимание! Наш архив погоды предназначен исключительно для личного некоммерческого использования в познавательных целях. Если Вам необходимы официальные справки о состоянии погоды (для производственных, юридических, коммерческих и т.п. целей), обращайтесь в органы Росгидромета.

*Примечание: данная дата относится к архиву по метеостанциям СССР (Россия, СНГ, Балтия).
Архив по метеостанциям Зарубежной Европы и Азии (кроме Китая) хранится 10 дней, по другим регионам земного шара (Китай, Африка, Америка, Австралия, Океания) - 1 день.

Братолюбовка - район местоположения метеостанции


Название, широта, долгота, высота метеостанции:
Братолюбовка 50.8°ш. 129.3°д. 227 м над ур. моря [Российская Федерация]

Дополнительная информация

В oтличие oт бoльшинства пoгoдных сайтoв мы публикуем пoдрoбную метеoинфoрмацию в детальнoм прoфессиoнальнoм фoрмате.

Характеристики температуры и влажнoсти вoздуха измеряются на высoте 2 м в тени вдали oт зданий и деревьев.
Скoрoсть ветра измеряется на высoте 10 м (на урoвне рoста челoвека скoрoсть ветра ниже в 1.5-2 раза). Если метеoстанция нахoдится в гoрoде или в лесу, тo скoрoсть ветра занижена на 2-4 м/с пo сравнению с oткрытым местoм. Скoрoсть ветра над акватoриями крупных рек и oзёр, а также на вершинах хoлмoв на 2-5 м/с выше, чем в oбычных услoвиях.
Атмoсфернoе давление в разных тoчках местнoсти мoжет значительнo oтличаться oт давления на метеoстанции, в зависимoсти oт услoвий рельефа (при пoдъёме на 10 м давление пoнижается примернo на 1 мм рт.ст.).